GFSMA_sfc_wetblb_009.txt.gz
Wetbulb
57.87 56.73 56.65 56.85 57.51 57.89 57.47 56.90 56.40 56.39 55.21 54.30 53.55 52.11 52.05 50.42 50.07 51.81 51.84 55.13 58.21 59.96 62.40 64.90 66.63 66.71 65.99 65.34 64.76 64.13 64.69 63.76 63.53 63.51 63.42 63.38 63.36 63.28 63.23 63.16 63.15 63.11 63.16
58.25 57.14 56.50 56.55 57.24 57.27 57.26 57.27 57.15 56.51 56.13 54.91 54.88 53.30 52.00 50.95 50.19 51.39 52.51 52.21 57.01 58.98 60.40 62.62 65.05 66.12 66.60 66.63 66.35 66.93 66.58 66.18 65.55 65.38 65.27 65.21 65.12 64.71 63.65 63.54 63.43 63.35 63.32
58.38 58.52 56.93 55.80 56.50 56.48 56.54 56.46 55.79 55.24 54.41 54.18 53.71 53.81 52.38 51.14 50.80 50.08 50.10 49.88 51.06 56.44 59.18 61.69 62.66 65.00 66.60 66.29 66.56 67.76 67.52 67.10 66.81 66.27 65.97 65.87 65.73 65.62 65.64 65.17 65.07 64.77 63.72
58.19 57.12 57.72 57.13 56.29 54.93 55.11 54.68 54.73 53.99 53.65 53.75 53.70 53.48 53.15 53.21 52.55 51.25 51.09 50.83 50.26 49.76 53.33 57.56 61.38 63.82 65.37 66.15 64.62 66.52 67.08 66.73 66.17 65.99 66.19 66.19 65.79 65.84 66.04 66.04 65.80 65.64 65.47
57.60 57.44 57.26 57.72 56.22 55.58 54.61 54.92 54.83 53.45 54.28 53.85 53.08 54.04 53.77 53.03 53.73 54.16 53.57 53.02 51.81 51.69 50.91 53.74 56.66 59.11 61.77 63.81 64.11 64.56 65.69 65.38 65.21 65.76 65.76 65.70 65.90 66.00 66.06 66.20 66.02 65.93 65.87
57.12 57.20 57.69 57.44 56.49 56.25 55.81 54.38 54.70 54.83 54.40 55.30 55.09 55.18 55.41 55.50 55.05 55.12 55.10 55.22 54.18 52.64 52.03 51.89 52.21 52.87 56.89 59.95 62.57 63.60 64.92 64.98 64.59 64.68 65.04 65.51 65.64 65.94 65.89 65.81 65.81 65.65 65.71
56.89 56.20 57.16 57.27 57.04 56.55 57.15 57.12 55.32 54.50 54.61 54.29 53.91 55.07 55.94 55.89 55.49 56.00 56.35 56.26 55.82 55.42 54.59 52.09 51.81 51.95 52.53 57.61 59.27 60.90 63.45 64.82 64.88 64.65 64.48 64.64 65.07 65.37 65.67 65.75 65.43 65.70 65.73
58.81 57.76 57.11 57.72 57.72 56.98 56.69 56.70 56.14 55.45 55.27 55.29 54.38 54.30 52.61 54.49 54.44 55.32 55.90 55.72 55.72 56.20 55.46 54.93 53.62 52.32 52.16 52.45 52.72 57.23 59.98 61.88 63.05 65.02 65.03 64.62 64.70 65.03 65.46 65.66 65.60 65.22 65.59
59.91 59.88 59.49 59.08 58.75 57.51 57.33 57.86 56.94 55.99 55.57 57.34 56.32 54.86 52.17 50.94 51.64 52.32 52.26 54.79 55.16 55.11 55.14 55.14 54.76 53.66 52.84 52.79 53.47 54.04 56.28 58.13 60.28 62.65 63.85 65.29 65.11 65.14 65.34 65.38 65.40 65.48 65.00
54.90 55.45 56.52 57.74 58.76 59.66 58.38 58.48 59.49 58.97 57.84 56.27 57.88 57.47 56.92 56.77 53.74 53.39 55.28 52.96 53.82 54.21 54.90 54.96 54.67 54.32 54.09 53.65 54.49 54.74 55.45 56.90 58.83 61.21 62.77 63.51 64.44 64.58 64.43 65.33 65.31 65.37 64.53
51.61 51.13 50.58 51.23 52.08 54.37 56.61 58.37 59.34 60.10 60.28 58.87 58.37 58.50 58.13 56.51 56.24 54.11 52.22 54.64 57.09 55.19 55.28 54.89 55.56 55.36 55.62 55.30 54.60 54.78 56.55 58.08 59.96 61.46 62.69 63.54 64.09 64.02 63.95 64.10 65.13 65.02 64.65
49.46 49.85 49.70 48.91 48.52 48.93 49.68 50.90 52.42 54.14 56.82 58.15 58.42 58.00 57.01 55.51 55.41 54.95 54.10 54.76 54.87 56.52 58.30 57.48 54.83 55.40 55.87 55.74 55.59 55.55 56.32 57.76 59.47 61.38 62.96 63.57 63.97 64.25 64.09 64.29 65.29 64.81 64.46
47.63 48.15 47.74 48.01 48.20 48.49 48.65 48.61 49.02 49.47 50.63 51.44 52.30 53.54 55.28 55.58 55.74 55.13 54.46 53.22 52.78 55.73 57.50 59.15 59.21 56.80 56.36 55.80 55.30 54.04 54.84 57.10 58.65 59.96 62.03 63.19 63.29 63.16 63.54 64.41 64.82 64.54 64.72
46.48 46.35 47.22 47.36 47.50 48.19 48.66 48.79 48.44 48.40 48.80 48.57 48.40 49.76 50.66 51.83 53.12 54.07 53.44 52.16 49.80 50.70 52.36 52.86 57.14 58.43 58.29 56.59 56.56 55.07 54.15 55.11 56.12 58.41 60.46 61.45 61.21 60.81 61.42 62.40 63.04 62.96 63.43
46.13 45.36 45.42 45.31 46.14 46.79 47.46 47.37 46.44 46.44 46.93 47.09 47.58 47.93 48.71 49.78 50.81 51.99 52.85 53.18 50.97 47.68 48.02 51.74 52.69 56.27 57.30 57.73 56.22 56.24 56.41 56.05 56.70 56.46 57.62 57.97 57.95 58.41 58.90 59.77 60.68 61.07 61.34
43.01 42.87 43.01 43.88 44.35 44.77 44.28 43.90 44.75 45.76 45.36 45.85 46.87 45.62 45.30 47.19 49.13 50.47 51.21 51.84 51.27 49.23 46.40 49.83 51.05 52.81 54.65 55.72 56.14 55.27 55.22 53.89 55.75 57.03 57.06 56.41 56.41 56.81 57.29 57.95 58.68 59.46 59.89
40.28 40.35 40.53 40.81 40.46 40.38 41.18 42.51 42.28 43.06 43.67 43.38 42.94 43.83 44.15 46.17 48.04 48.68 48.30 48.42 47.93 48.46 46.22 47.89 49.93 51.57 52.21 52.72 54.25 55.31 54.66 54.98 55.41 55.78 56.86 56.96 56.44 56.28 56.41 56.69 57.10 58.15 58.90
37.95 38.06 37.81 37.59 37.03 37.88 39.12 39.58 38.69 41.62 40.24 39.66 41.72 42.72 43.66 47.27 46.24 45.81 44.50 44.74 46.24 46.52 45.19 43.62 46.34 47.71 49.42 51.92 52.94 53.65 54.21 55.10 54.47 55.15 56.10 55.96 55.78 55.92 56.14 56.10 56.08 56.57 56.90
35.32 35.31 35.61 35.19 35.19 35.93 37.68 37.31 37.73 39.40 37.46 37.91 40.09 41.33 44.57 42.90 42.41 40.45 41.68 43.98 44.25 42.84 43.01 43.42 45.24 47.23 47.94 49.94 51.00 52.16 52.56 53.73 54.51 53.28 54.82 55.17 55.52 55.55 55.47 55.59 55.62 55.76 55.71
33.19 33.15 33.88 33.85 34.14 34.80 35.61 35.62 37.01 36.54 36.66 38.52 40.55 43.46 39.99 39.41 39.91 39.89 41.69 37.98 37.89 38.67 40.41 39.99 41.15 43.44 44.86 46.40 48.18 48.34 49.04 50.88 49.68 51.67 51.98 52.27 53.40 53.77 54.45 55.09 54.65 54.31 54.13
32.00 32.29 32.36 32.32 32.79 33.41 34.60 34.81 35.77 35.84 36.92 35.10 35.28 36.82 36.87 38.32 40.30 42.47 40.83 38.16 36.85 37.28 37.95 36.52 38.17 39.89 40.29 41.91 42.54 45.33 45.66 47.59 49.46 50.27 49.34 48.51 48.99 49.81 50.60 52.67 52.82 52.92 53.01
30.33 30.66 30.52 30.67 30.93 32.89 36.51 37.85 37.67 36.34 34.54 32.53 31.68 33.02 35.23 36.95 37.18 41.94 41.49 41.26 40.34 36.97 35.48 35.92 36.52 36.15 37.95 39.79 41.64 42.76 42.57 42.08 41.75 47.23 46.82 47.47 48.24 47.00 48.73 50.67 52.42 52.55 51.75
28.87 28.72 29.04 29.73 29.72 30.50 35.76 37.36 38.08 35.20 32.52 31.80 32.29 32.94 33.51 35.46 36.72 37.57 39.43 40.53 39.54 39.80 39.52 36.92 36.12 37.52 38.03 40.08 40.81 40.05 40.26 41.34 42.62 45.62 44.87 44.54 43.97 45.05 47.32 46.28 50.77 51.34 50.13
27.77 27.86 28.32 29.17 29.16 30.37 34.99 36.39 36.92 33.06 32.23 32.18 32.47 32.72 32.75 33.43 35.68 36.55 36.22 35.35 35.07 35.38 36.17 37.83 39.25 40.20 40.99 41.56 42.53 42.44 42.07 42.03 43.13 44.51 42.91 40.62 42.20 41.63 38.08 39.98 47.80 48.55 47.74
27.16 27.49 28.58 28.35 27.85 28.57 34.00 35.25 34.82 32.26 31.82 31.80 33.01 33.33 34.02 33.65 36.72 37.76 34.78 33.42 32.93 33.88 38.38 41.50 41.44 41.89 42.30 41.34 42.06 41.96 40.41 39.76 39.14 41.49 38.42 39.94 34.21 32.15 33.21 34.89 41.72 46.61 45.51
27.27 28.12 27.54 27.90 29.91 28.18 32.65 35.02 34.46 32.25 31.10 31.64 33.41 33.53 35.88 34.75 36.70 37.30 33.65 32.94 32.99 34.94 37.13 37.17 36.62 37.18 37.87 37.93 40.65 40.27 38.49 35.48 35.55 36.29 34.72 35.13 30.93 30.62 29.11 30.35 32.90 41.02 41.55

GFSMA_sfc_wetblb_012.txt.gz
Wetbulb
57.29 56.74 56.35 55.97 56.19 56.84 56.92 56.97 56.87 57.30 56.69 55.99 55.44 53.88 53.96 52.66 51.31 51.29 51.16 55.00 57.66 59.72 61.72 62.57 63.38 64.96 65.71 67.42 67.47 66.90 66.23 65.91 65.30 65.32 65.26 65.02 64.79 64.02 63.83 63.80 63.83 63.73 63.61
57.70 57.20 56.45 56.20 55.90 56.71 57.35 57.37 57.39 57.28 56.88 55.71 55.79 54.55 54.58 54.02 53.04 51.70 51.36 51.19 56.40 58.49 60.61 62.39 63.32 63.04 64.43 65.90 68.19 67.80 67.27 66.85 66.37 66.02 65.84 65.79 65.55 65.56 65.15 64.48 64.47 64.17 63.92
57.82 58.07 56.74 56.24 56.87 56.48 56.75 56.63 56.42 56.23 55.94 55.77 55.04 55.50 54.95 53.75 53.24 52.42 51.51 51.80 52.59 57.08 58.83 61.60 62.50 62.98 63.05 63.62 64.90 67.67 67.69 66.94 66.40 66.30 66.28 66.14 66.05 65.80 65.95 65.99 65.80 65.73 65.08
57.94 57.08 57.38 57.59 57.59 55.48 55.50 55.07 55.29 54.61 54.14 54.33 54.45 54.69 54.39 54.18 53.74 52.91 52.77 52.49 52.21 51.76 54.12 57.86 60.33 62.06 63.39 63.28 63.92 65.21 66.62 66.44 66.33 66.22 66.05 65.91 65.92 65.72 65.85 66.00 66.15 66.11 66.00
57.83 57.28 57.34 57.74 56.65 55.37 54.41 54.66 54.92 53.41 54.77 54.82 53.46 53.98 54.05 53.49 53.46 54.57 53.63 53.08 52.81 53.26 52.65 54.33 57.16 58.97 61.00 63.11 63.47 63.95 65.64 65.44 65.15 65.43 65.84 66.12 65.95 65.96 66.06 66.23 65.81 66.00 66.07
56.60 56.41 56.68 56.67 56.22 55.27 55.27 54.25 54.63 56.46 55.28 55.73 55.86 56.16 56.56 56.19 54.96 54.26 54.64 55.26 54.80 54.26 53.11 52.83 53.37 53.99 57.28 59.63 61.61 63.21 65.20 65.65 65.01 64.72 64.78 64.86 65.35 65.97 66.07 65.76 65.74 66.17 65.89
56.57 55.61 55.64 55.83 55.91 55.29 56.21 57.23 57.23 55.02 55.22 55.01 53.97 54.96 55.64 55.81 55.54 55.72 56.04 55.59 55.51 55.67 54.93 53.71 53.46 53.39 53.34 58.08 59.38 60.58 62.40 64.05 65.37 65.15 64.98 64.87 64.90 65.15 65.81 66.12 65.69 65.35 65.68
58.45 58.22 57.12 56.70 56.65 56.08 56.04 55.63 55.74 56.38 56.71 56.71 54.30 54.89 52.64 54.54 54.71 55.83 55.90 55.63 55.47 56.19 55.93 55.49 54.76 52.82 52.78 52.77 53.46 58.03 60.19 61.45 63.03 63.93 65.32 65.44 65.47 65.56 65.75 65.86 65.89 65.78 65.87
51.75 51.35 52.00 53.09 54.38 56.18 56.51 56.80 57.17 57.21 56.09 57.30 57.44 54.95 52.48 52.22 55.41 56.41 53.07 54.57 54.94 55.20 55.50 55.72 55.50 54.97 53.88 52.84 54.18 54.92 56.96 58.91 60.97 62.97 63.57 64.70 65.53 65.90 66.25 66.15 66.04 65.89 65.53
49.82 49.35 49.12 48.88 48.95 50.93 49.83 51.89 52.97 55.60 55.98 55.14 57.28 58.22 57.47 56.21 52.89 51.89 56.62 54.46 54.07 54.16 55.05 55.33 55.23 55.22 55.06 54.40 54.55 54.57 55.30 57.14 59.55 62.20 63.60 63.89 63.95 64.31 64.64 66.44 66.22 65.66 64.99
48.39 48.28 47.84 47.19 47.10 47.86 47.70 47.80 48.21 48.76 49.58 51.28 51.46 52.85 53.60 53.61 53.93 52.24 49.21 51.59 55.11 56.68 56.31 55.45 55.62 55.88 55.86 55.55 54.91 54.75 56.47 58.18 60.26 62.23 63.81 64.45 64.55 64.65 64.89 65.30 66.30 66.07 65.12
46.69 46.78 46.74 46.52 46.28 46.52 46.97 47.40 47.48 47.06 47.50 48.34 48.95 48.58 48.56 48.46 48.80 49.38 48.43 48.69 49.45 52.11 54.49 56.67 56.93 55.73 56.21 56.47 56.17 56.12 56.97 58.05 60.11 62.14 63.80 64.75 64.67 64.84 64.86 65.20 66.05 65.89 65.37
43.83 44.14 44.30 44.70 45.07 45.73 46.35 46.84 46.68 46.42 46.61 46.70 46.59 46.68 48.03 48.06 49.25 49.22 48.15 47.09 47.61 49.99 50.96 53.48 55.34 56.83 57.25 56.82 56.22 54.92 55.63 57.48 59.01 60.58 62.51 64.26 64.10 64.07 64.12 64.66 65.42 65.53 65.16
42.41 42.21 42.74 43.04 43.65 44.26 44.70 43.91 43.86 44.66 45.16 45.05 44.46 45.40 46.65 46.77 47.43 47.28 47.01 46.93 44.39 45.43 47.43 47.94 52.18 54.09 55.32 55.77 56.15 55.23 55.35 56.11 57.10 58.75 60.26 61.55 61.45 61.07 61.74 62.69 63.26 63.51 63.52
41.22 40.47 40.07 40.00 40.58 40.49 40.13 40.46 41.51 41.59 41.83 43.15 43.44 43.69 42.59 43.88 44.92 46.27 48.12 48.57 45.35 40.97 41.41 44.55 45.71 49.71 51.63 52.88 53.79 54.57 55.37 55.93 57.44 57.68 57.73 57.66 57.66 58.47 59.00 59.54 60.25 60.85 61.13
37.22 37.22 37.01 36.84 36.86 36.50 37.22 37.38 40.11 37.93 38.98 41.71 39.38 39.02 40.55 42.75 43.60 45.72 47.63 46.52 45.02 43.65 39.91 42.91 43.82 45.56 47.50 49.35 51.31 52.41 53.01 53.08 55.31 57.01 57.38 56.91 56.79 56.70 57.10 57.78 58.09 58.45 58.90
34.72 34.83 34.64 34.88 34.51 34.47 35.05 35.05 36.95 36.08 37.68 37.23 36.47 37.01 38.61 40.98 43.01 43.27 44.30 41.33 40.05 42.03 40.84 41.66 41.83 42.31 42.13 45.17 48.72 50.89 51.56 52.22 53.59 55.21 56.56 56.59 56.43 56.30 56.39 56.46 56.86 57.60 57.91
33.24 33.16 33.00 33.10 32.93 33.28 33.46 34.07 33.26 33.83 35.53 34.12 35.28 36.86 38.12 41.91 38.19 39.82 39.72 37.29 38.99 42.65 36.82 34.68 37.30 38.75 40.77 42.00 44.27 46.07 47.84 50.13 51.14 53.12 54.96 55.52 55.74 55.91 56.00 56.10 56.08 56.16 56.33
31.47 31.47 31.64 31.43 31.46 31.94 32.27 32.11 32.88 33.65 33.78 34.40 35.73 35.11 33.00 35.36 34.43 34.76 34.58 35.16 39.69 39.25 36.76 35.76 35.89 38.75 38.21 39.24 42.05 43.60 43.66 44.82 48.20 50.39 52.90 54.24 55.07 55.04 55.44 55.47 55.30 55.23 55.04
29.67 29.99 30.37 30.51 30.68 31.06 31.46 32.24 33.14 33.47 34.01 35.34 33.82 32.60 32.18 32.43 32.71 33.95 33.86 34.47 38.63 36.37 35.88 35.31 35.59 35.60 35.86 37.89 38.93 38.35 38.38 41.72 42.37 45.84 48.61 49.35 52.31 52.92 53.74 54.33 54.08 53.24 53.14
29.34 29.54 29.46 29.56 29.79 30.65 32.30 32.56 33.31 33.35 33.29 32.66 32.05 32.21 33.10 34.76 36.96 36.74 35.33 34.88 35.91 35.35 35.64 35.24 34.18 33.65 33.57 33.75 34.08 37.11 37.68 40.02 41.47 42.35 42.77 44.88 47.89 49.59 49.32 50.73 50.41 50.64 51.69
28.00 28.22 28.06 28.20 28.27 30.76 34.50 36.17 35.52 32.80 32.49 31.36 30.74 31.62 32.41 34.56 34.80 37.87 38.07 38.39 37.36 34.24 33.11 32.90 32.68 31.13 31.75 32.91 35.84 37.46 38.21 37.16 35.47 42.24 42.42 42.71 44.48 45.69 46.99 48.18 50.09 50.74 51.15
26.54 26.63 26.85 27.38 27.40 28.28 34.00 35.62 36.10 32.61 31.49 31.13 31.03 31.15 31.76 33.69 34.74 33.72 36.02 37.30 36.76 37.74 37.20 33.75 31.29 31.76 32.14 34.60 37.46 35.72 35.90 36.17 36.51 39.64 40.52 38.63 42.56 42.50 46.19 46.64 49.11 49.63 50.43
25.50 25.78 26.24 27.04 27.16 28.47 33.33 34.67 35.42 31.80 31.11 31.22 31.49 31.71 31.78 33.07 33.12 33.48 32.91 32.70 33.35 32.62 33.03 34.62 34.81 35.16 36.08 38.63 37.48 36.91 36.96 36.25 37.51 39.44 41.60 37.82 42.01 41.66 43.64 43.59 45.27 46.99 47.90
25.40 25.75 26.76 26.52 25.89 26.65 32.52 33.85 33.54 30.73 30.49 30.53 31.71 32.19 33.34 31.52 34.58 36.04 32.90 31.24 30.18 32.02 35.34 36.73 37.75 38.24 38.81 38.71 37.99 35.69 33.44 33.11 33.13 34.62 38.11 38.60 39.97 40.15 33.92 34.53 37.53 42.96 46.26
25.81 26.44 25.90 25.99 28.08 26.44 31.07 33.78 33.10 30.56 29.67 29.77 31.29 32.48 33.74 32.89 35.47 35.38 31.00 30.11 28.68 27.72 29.78 31.61 32.74 34.24 34.83 34.52 36.68 35.18 34.44 31.47 31.45 30.73 31.95 35.77 37.21 32.68 32.33 31.00 33.42 38.50 45.25

GFSMA_sfc_wetblb_018.txt.gz
Wetbulb
65.14 65.06 64.95 65.16 65.11 65.21 64.97 64.86 64.86 64.80 64.80 65.00 65.03 64.70 64.43 64.60 64.68 64.52 64.50 62.01 62.11 61.98 63.65 64.79 64.75 63.96 63.89 64.81 64.97 66.39 67.16 67.94 68.09 67.76 67.04 66.86 66.75 66.54 66.23 65.68 65.60 65.71 65.46
66.09 65.66 65.37 65.27 65.21 65.38 65.29 65.04 64.78 64.62 64.50 64.84 64.68 64.92 64.74 64.82 64.70 64.56 64.71 64.77 62.87 61.98 62.37 64.43 65.52 65.55 65.25 64.69 64.51 66.07 66.14 67.05 67.85 68.15 67.72 67.17 66.71 66.56 66.60 66.60 66.49 66.47 66.45
66.05 65.93 65.52 65.36 65.51 65.62 64.96 65.02 64.92 64.85 64.43 64.53 64.29 64.49 64.49 64.55 64.46 64.45 64.67 64.74 64.55 61.84 61.80 62.98 64.85 65.74 65.79 66.10 65.94 65.79 66.52 66.29 66.58 67.23 67.77 67.53 67.30 66.62 66.56 66.57 66.47 66.41 66.70
65.67 65.48 64.99 65.01 65.45 64.99 64.76 64.37 64.31 63.84 63.73 63.47 63.07 63.55 63.41 63.56 63.52 63.84 64.11 64.26 64.21 63.84 63.42 62.39 62.29 63.13 64.87 66.17 66.91 66.92 67.31 66.52 66.13 66.05 66.61 67.02 67.24 66.84 66.89 66.70 66.54 66.53 66.50
64.38 64.45 64.58 64.71 64.87 64.51 64.14 63.39 62.73 62.36 61.51 61.62 60.35 61.26 61.72 61.45 62.73 63.54 63.65 63.48 63.57 63.42 63.55 62.30 61.69 61.41 61.62 62.37 64.78 66.33 67.04 67.22 66.44 66.10 65.91 65.89 65.99 66.78 66.88 66.95 66.60 66.45 66.50
63.48 63.53 62.37 60.90 61.14 60.93 60.32 59.90 59.46 60.25 60.01 59.72 58.50 59.23 59.98 60.73 61.61 61.88 62.68 63.00 63.63 63.51 63.48 63.34 63.21 62.61 60.37 60.75 61.79 63.13 64.48 65.35 66.34 66.11 66.05 65.96 65.96 65.99 66.38 66.66 66.87 66.74 66.67
56.25 56.37 56.37 55.94 55.95 55.84 55.26 55.17 55.34 54.52 54.77 56.32 53.88 54.57 55.80 57.86 60.11 59.69 61.60 62.20 61.43 61.81 62.37 63.19 63.36 63.70 63.06 62.08 61.99 61.87 62.58 63.73 64.38 65.36 65.77 65.78 65.96 65.91 66.16 66.38 66.25 66.48 66.84
54.09 53.75 53.80 53.66 53.80 53.57 53.52 53.28 53.34 52.14 52.67 53.48 50.89 50.74 49.00 51.65 55.00 55.77 55.25 55.01 56.96 58.05 59.21 61.21 61.77 61.98 62.61 63.03 62.35 61.81 61.90 62.22 63.47 64.33 64.67 65.56 65.90 66.13 66.46 66.59 66.18 66.03 66.11
52.25 52.22 52.18 52.17 52.17 52.33 51.38 51.53 51.23 50.56 48.70 50.56 51.48 49.16 46.63 45.98 48.75 51.29 52.38 53.21 54.21 55.42 55.40 56.43 57.69 58.63 59.00 59.96 60.95 60.95 60.00 60.74 61.80 63.13 63.83 63.93 64.96 65.36 65.31 66.22 66.80 66.71 66.13
50.21 49.22 49.42 49.41 49.38 49.50 48.91 48.76 48.52 48.50 48.04 46.42 48.27 49.23 49.86 48.48 44.21 43.85 49.56 50.74 52.43 52.25 52.84 54.18 54.38 55.21 56.20 57.59 58.55 58.13 58.73 59.84 61.51 62.57 63.10 63.40 63.86 64.58 65.21 65.50 66.00 66.94 66.55
48.57 46.49 46.58 46.66 46.49 46.32 46.43 46.14 45.88 45.77 46.72 45.56 45.25 45.85 46.74 47.36 47.40 45.12 43.09 44.45 47.39 48.56 49.97 51.30 52.95 53.70 54.83 56.01 56.43 56.90 57.57 57.47 59.19 60.52 61.88 62.52 63.24 63.89 63.72 63.99 65.86 65.79 66.20
46.19 44.88 44.39 44.44 44.63 44.07 43.69 43.62 44.09 44.70 45.67 44.53 44.56 45.18 45.37 44.05 43.10 41.99 40.80 42.04 42.97 45.11 47.24 49.11 50.53 52.01 53.22 52.30 53.00 53.75 53.42 52.79 53.46 55.05 56.96 58.75 59.82 60.59 61.34 62.34 63.59 62.68 62.77
43.28 42.58 42.78 42.38 42.40 42.47 42.20 42.45 42.69 43.61 44.64 42.47 43.04 44.30 44.31 41.88 42.05 40.76 40.16 41.27 41.43 44.01 45.72 48.10 48.84 49.70 49.67 50.14 50.88 50.84 50.85 51.69 49.77 50.72 53.91 56.09 56.27 56.72 57.55 58.91 59.93 60.13 60.60
41.30 41.53 41.12 41.14 41.15 41.06 41.08 41.30 41.37 41.94 42.72 41.99 40.84 41.88 41.92 40.90 41.97 41.86 41.48 41.49 39.53 40.30 43.12 42.43 46.31 45.95 46.49 47.81 49.37 50.01 47.58 48.61 49.25 49.72 51.45 50.37 50.11 53.90 54.83 54.71 56.53 57.77 58.44
39.63 40.10 40.26 39.83 40.22 40.03 39.86 40.00 39.89 39.80 40.14 40.51 39.96 40.82 40.10 40.75 41.98 42.14 41.86 42.16 38.82 34.66 37.02 40.94 40.90 42.92 43.72 45.34 46.60 46.86 46.24 46.35 48.08 46.87 47.14 48.92 50.70 52.40 53.75 54.29 54.12 55.69 56.88
39.21 39.05 38.82 38.79 38.81 38.84 38.78 38.65 38.62 38.86 38.50 38.94 39.31 39.04 39.35 40.14 40.37 40.31 38.86 38.57 38.74 37.04 34.21 38.95 39.82 39.99 41.83 43.58 45.69 44.41 43.78 44.48 46.20 45.98 45.48 46.94 49.05 50.41 50.83 51.29 52.96 53.80 54.64
38.17 37.79 37.61 37.46 37.40 37.29 37.60 37.35 37.28 37.41 37.15 37.65 38.45 38.23 37.86 39.60 37.91 37.52 37.57 37.31 36.35 36.56 34.52 37.10 39.02 40.78 39.80 41.16 42.37 42.67 43.69 43.11 44.42 44.35 44.50 46.69 46.44 48.13 49.41 50.55 49.87 51.12 52.81
37.67 37.11 36.83 36.56 36.51 36.46 36.61 36.06 35.87 36.56 36.50 36.44 36.92 36.98 36.60 37.14 36.24 36.56 36.41 35.65 36.29 37.24 35.84 33.80 36.71 37.80 37.98 39.15 40.72 40.45 41.17 41.71 41.84 42.36 42.85 43.33 44.64 45.86 47.76 48.52 49.83 49.11 49.56
36.61 36.60 36.27 35.63 35.41 35.46 35.21 35.63 35.71 36.05 36.47 36.62 36.58 36.07 35.79 35.58 34.70 35.44 35.58 35.79 36.67 36.43 36.81 35.29 34.48 37.52 37.96 38.98 38.14 38.78 38.80 39.15 40.42 41.47 42.20 42.52 43.44 44.51 46.08 47.35 47.57 47.28 48.23
35.69 35.51 35.47 35.10 34.96 34.81 34.83 35.00 35.18 35.72 36.00 36.24 36.29 36.15 35.49 34.84 34.46 34.45 34.89 34.78 35.35 34.83 35.47 34.51 34.48 34.84 35.94 37.19 37.27 35.99 35.77 38.32 38.29 40.14 41.11 41.74 42.84 43.66 44.72 45.27 46.66 46.67 47.72
35.19 35.12 34.45 34.51 34.62 34.46 34.35 34.07 34.68 34.88 34.89 34.91 35.58 35.21 35.26 35.38 35.72 36.06 35.20 34.74 34.31 33.79 33.85 33.57 32.95 32.93 32.78 33.31 32.88 35.12 33.95 35.24 36.26 38.58 38.89 40.58 41.42 43.04 43.51 43.71 43.86 44.36 46.11
34.74 34.50 34.12 33.82 33.52 33.61 34.44 34.54 34.71 33.94 34.25 34.17 33.42 34.10 34.60 34.84 35.15 36.39 36.57 36.43 35.32 33.32 32.72 32.85 31.96 30.01 30.98 32.25 33.51 32.94 32.63 31.32 29.49 37.54 36.75 37.06 40.29 39.17 41.27 42.08 42.01 43.47 45.40
34.16 33.76 33.62 33.37 32.80 33.13 33.94 34.03 34.47 33.75 33.76 33.62 33.33 33.15 33.30 34.14 34.74 34.34 35.23 35.60 35.76 36.68 35.66 32.31 30.70 30.90 30.99 32.52 33.10 32.03 32.31 31.91 31.41 35.02 35.91 33.35 37.88 36.88 40.42 39.88 42.06 42.68 43.99
33.28 33.02 32.84 32.62 32.26 32.33 33.02 33.42 33.73 33.52 33.40 33.35 33.27 33.21 32.85 33.14 34.15 34.06 33.78 33.51 34.39 33.50 33.68 33.41 32.37 32.45 33.22 34.26 33.60 32.86 32.67 33.10 34.41 35.97 36.15 31.76 37.07 35.32 39.33 40.32 40.23 41.95 43.40
32.52 32.29 32.13 31.65 31.10 31.31 32.47 32.45 33.06 32.73 32.14 32.18 32.91 33.15 33.12 32.96 34.14 34.53 32.97 32.88 31.37 31.77 33.11 33.26 33.85 34.39 33.91 33.79 33.46 31.99 31.02 29.21 29.94 32.11 35.78 33.38 34.49 34.86 35.50 37.13 38.64 40.24 42.19
31.54 31.65 31.18 31.58 31.40 30.70 32.30 32.84 33.05 32.35 30.74 31.46 32.21 32.59 33.82 33.36 34.06 34.49 32.66 30.58 28.58 29.04 30.05 31.08 31.74 31.46 31.23 31.92 33.02 31.65 31.51 28.21 28.83 27.90 34.00 30.97 32.45 32.67 30.30 37.01 37.86 37.63 38.60

GFSMA_sfc_wetblb_021.txt.gz
Wetbulb
65.31 65.29 65.07 65.19 65.40 65.54 64.96 64.88 65.05 65.09 65.21 65.40 65.52 65.22 65.11 65.09 65.38 65.40 65.64 63.56 64.87 65.54 65.30 65.74 66.18 66.75 66.39 65.58 65.19 66.70 66.94 67.18 67.69 67.99 68.14 67.92 67.38 67.37 67.26 66.83 66.72 66.77 66.62
66.36 66.16 65.93 65.84 65.72 65.97 65.94 65.50 65.08 65.04 64.96 65.07 64.81 64.92 64.84 65.25 65.27 65.14 65.41 65.45 64.49 65.15 65.65 65.99 66.31 66.55 67.42 67.43 66.90 66.87 66.64 67.08 67.06 67.33 67.75 68.13 67.87 67.33 67.39 67.34 66.89 66.73 66.87
66.60 66.33 65.91 65.77 66.07 66.28 65.69 65.44 64.94 64.59 64.01 63.78 63.03 63.29 64.35 64.00 63.94 63.77 64.07 64.51 65.06 63.46 64.94 66.35 66.27 66.07 66.02 67.28 67.74 67.64 67.90 66.91 66.63 66.63 66.74 67.23 67.72 67.37 67.46 67.36 67.23 67.01 66.85
66.32 65.80 65.42 65.18 65.40 64.73 64.48 63.44 62.78 62.28 61.80 61.54 61.60 61.91 62.14 62.23 62.10 62.11 62.88 63.86 64.24 64.13 64.07 65.16 65.75 65.55 65.33 65.42 66.24 67.21 67.52 67.46 67.08 66.53 66.53 66.45 66.57 67.14 67.40 67.15 67.10 67.14 67.10
65.41 65.29 64.33 62.96 62.43 62.55 61.66 60.57 59.37 59.14 58.84 58.84 58.96 59.31 59.72 60.00 60.26 60.47 60.95 61.91 62.84 63.78 63.73 63.32 62.89 63.62 64.39 64.42 65.10 65.41 65.62 66.52 66.64 66.56 66.64 66.58 66.50 66.59 66.85 67.02 66.81 66.63 67.02
58.91 59.37 58.28 57.15 57.21 57.17 56.27 56.06 55.44 55.77 55.09 55.03 54.02 54.24 55.49 56.66 57.74 57.65 60.11 60.76 61.83 61.38 60.03 61.34 62.56 62.68 61.94 63.79 64.66 65.09 65.07 64.76 64.87 65.99 66.30 66.25 66.44 66.56 66.67 66.63 66.56 66.70 67.14
55.75 55.40 55.25 54.84 54.93 54.23 54.06 53.76 53.75 53.27 53.10 54.04 51.80 52.15 53.05 53.53 55.19 55.24 54.84 54.11 54.35 55.55 56.51 56.92 57.74 59.91 60.47 62.86 63.57 64.72 64.56 64.72 64.51 64.22 65.10 65.52 65.16 65.86 66.43 66.79 66.69 66.44 66.75
53.38 53.22 52.79 52.76 52.50 52.29 52.12 51.44 51.17 49.91 50.41 51.13 48.17 47.96 46.09 48.42 52.70 51.11 50.75 51.97 52.53 53.41 54.57 54.74 55.20 55.87 56.21 56.04 56.16 60.75 62.49 63.53 63.42 63.72 64.25 64.33 64.39 64.49 64.78 65.45 66.21 66.87 66.69
50.39 50.08 50.03 49.70 49.76 49.89 49.38 49.08 48.56 48.08 45.92 47.95 48.79 46.07 42.66 41.23 44.65 48.32 48.88 49.82 50.13 49.83 51.98 51.34 50.96 52.05 53.04 53.71 54.46 54.96 56.84 60.05 60.89 61.97 62.39 62.08 62.13 62.48 63.20 63.45 63.97 65.30 66.67
48.92 47.40 47.32 47.04 47.01 47.24 46.25 46.57 46.11 45.93 45.81 44.42 46.17 45.93 46.99 45.80 41.62 40.79 46.39 46.80 47.83 46.66 46.87 48.32 48.35 49.29 50.75 52.08 54.06 54.60 56.29 55.80 57.08 58.85 59.76 59.78 60.26 60.85 62.11 63.00 63.75 63.99 64.57
47.96 45.74 45.29 45.39 44.84 44.85 44.46 44.23 44.20 44.06 44.53 44.65 43.53 43.33 43.89 44.89 45.15 40.94 37.49 40.78 43.45 44.55 45.43 46.49 48.04 47.80 48.53 49.60 52.41 52.52 54.70 54.51 54.91 55.71 56.59 56.77 56.71 57.40 58.43 59.21 60.30 61.27 61.50
46.12 44.66 43.86 43.65 43.72 43.30 42.93 42.90 43.39 43.50 43.39 44.75 43.45 42.55 42.24 42.04 40.26 38.73 37.11 37.93 38.59 42.24 45.13 45.86 46.77 47.77 49.12 48.95 50.42 51.22 52.05 51.80 52.00 53.56 54.45 54.63 54.64 55.07 56.39 56.19 56.69 58.80 59.39
43.20 42.41 42.42 41.81 41.89 42.48 42.31 42.48 42.56 43.10 43.06 42.92 42.01 41.28 41.47 41.56 41.93 39.86 38.78 37.80 37.69 40.83 42.48 43.76 44.97 43.63 45.63 45.73 45.09 46.74 46.18 49.37 49.52 50.91 52.62 52.92 51.63 51.22 51.58 52.29 53.49 54.17 55.41
41.46 41.59 41.17 41.03 40.90 41.02 40.77 41.31 41.25 41.91 42.06 41.27 41.02 40.50 40.31 40.93 41.00 40.41 39.14 37.65 35.28 35.68 36.65 37.03 41.58 42.44 42.66 42.67 42.50 44.71 42.71 45.91 48.40 49.03 49.88 49.40 48.25 48.01 48.70 49.50 50.13 51.01 53.39
40.33 40.29 40.38 39.81 40.01 39.94 39.72 39.99 39.78 39.32 39.66 39.63 39.55 39.70 39.42 39.92 40.57 40.18 40.59 39.26 35.19 29.95 30.76 35.48 35.65 39.70 41.19 40.62 41.99 41.45 41.81 45.16 46.73 46.12 46.08 46.49 47.43 47.07 46.56 47.12 49.12 50.39 50.45
39.68 39.30 39.04 38.87 38.80 38.85 38.72 38.69 38.40 38.77 38.08 38.46 38.59 38.46 38.41 38.95 38.78 39.73 39.11 37.94 36.79 33.72 29.98 35.14 35.72 38.09 39.37 40.86 41.07 41.05 40.92 42.98 44.13 44.29 44.81 46.16 46.16 45.17 45.12 46.74 47.03 47.18 48.25
38.62 38.28 38.00 37.78 37.72 37.54 37.66 37.25 37.02 37.23 36.70 37.03 37.83 37.62 37.34 37.94 37.29 37.46 37.33 36.74 35.64 35.33 31.29 33.81 36.52 38.25 37.40 37.20 38.32 39.30 39.75 40.02 40.53 43.17 43.28 43.46 43.54 43.96 44.34 44.67 45.40 45.56 46.39
38.16 37.79 37.54 37.12 36.98 36.79 36.71 35.91 35.48 36.04 35.51 35.61 36.40 36.49 36.22 37.08 36.03 36.39 35.83 35.00 34.70 34.96 32.90 31.15 33.92 34.57 35.06 36.65 37.01 36.90 37.85 39.36 38.55 40.86 42.20 42.17 42.78 42.64 43.16 44.13 45.07 46.08 47.13
37.13 37.27 37.01 36.24 35.92 36.00 35.71 35.49 35.42 34.76 35.12 35.60 35.75 35.56 35.40 35.50 34.40 34.60 34.48 33.76 34.02 34.79 34.31 32.28 31.31 34.13 34.56 35.81 35.13 35.35 34.66 35.69 38.14 40.40 40.76 40.90 41.40 41.78 42.69 43.05 45.05 45.71 45.86
36.45 36.42 36.32 35.86 35.73 35.56 35.53 35.31 34.53 34.19 34.52 34.93 35.45 35.41 35.45 34.79 33.88 33.53 33.38 33.34 34.02 33.14 32.88 32.04 31.35 31.80 32.97 34.36 33.90 31.10 30.73 33.93 33.72 36.37 37.63 38.27 39.53 40.36 41.27 42.43 43.16 44.10 44.37
36.25 36.28 35.67 35.59 35.73 35.56 35.19 34.66 34.11 33.61 33.40 33.54 34.34 34.99 35.21 35.88 36.36 35.63 33.96 33.32 32.80 32.18 31.34 30.64 30.57 30.95 31.53 29.71 29.00 30.45 29.57 30.76 31.82 33.52 33.20 34.54 35.54 36.62 38.26 39.84 40.89 42.07 43.14
35.71 35.75 35.34 35.14 34.63 34.71 36.38 36.10 34.81 32.89 32.97 32.74 32.78 33.89 34.45 35.46 35.16 36.21 36.24 36.31 35.19 31.57 30.10 30.03 29.95 29.70 28.10 28.86 28.98 28.95 28.73 27.88 26.13 32.88 31.77 31.49 34.31 33.72 35.66 36.96 40.21 41.06 41.50
35.26 34.77 34.78 34.56 33.79 33.83 35.66 35.48 34.96 32.63 32.21 32.77 32.68 32.73 32.95 34.13 34.26 33.43 34.93 35.73 35.13 35.53 35.49 31.17 28.79 28.10 26.95 28.32 29.32 28.63 29.41 28.30 26.69 29.94 30.88 28.89 32.92 32.85 35.99 37.75 39.64 39.84 40.89
34.13 33.84 33.79 33.67 32.98 33.24 34.87 34.55 34.21 32.61 32.48 32.68 32.64 32.62 32.15 32.21 33.03 33.07 32.43 31.89 32.77 32.81 31.85 31.89 30.62 29.59 29.94 31.07 31.25 30.36 28.51 28.59 30.01 30.85 32.35 27.32 32.41 30.87 34.57 35.36 38.23 38.27 39.67
33.28 33.03 33.10 32.54 32.06 32.07 34.00 34.08 33.51 32.09 31.67 31.49 32.35 32.48 32.07 31.93 34.07 34.88 32.00 31.02 29.00 29.15 32.63 33.62 33.62 33.66 33.62 33.66 32.60 29.20 26.79 26.18 24.78 26.94 30.29 28.50 29.36 30.88 30.72 31.79 34.02 37.71 39.05
32.65 32.67 32.09 32.44 33.02 31.50 33.84 34.21 33.58 31.90 30.33 30.51 31.43 32.14 33.71 32.55 34.28 34.81 31.06 28.45 25.91 26.66 28.69 28.70 28.76 29.33 30.20 29.71 31.97 29.62 28.41 24.96 24.63 24.20 27.92 26.29 26.83 28.02 26.14 30.85 33.40 34.17 34.31

GFSMA_sfc_wetblb_024.txt.gz
Wetbulb
60.62 60.70 60.61 60.72 60.92 61.19 60.77 60.53 60.84 61.43 61.88 61.84 61.98 62.29 62.79 62.59 62.75 62.81 62.45 63.04 65.49 67.65 68.16 67.77 67.67 67.52 67.39 67.25 67.77 67.75 67.31 67.34 67.59 67.46 67.69 68.12 68.33 68.32 68.00 67.86 67.47 67.37 67.37
62.23 62.34 62.08 62.52 63.17 63.22 62.97 62.97 62.51 61.94 62.29 62.49 62.26 62.54 62.22 62.35 61.82 60.92 61.08 61.22 64.00 66.04 67.66 68.15 67.99 67.88 67.79 67.67 67.30 67.69 67.87 67.87 67.51 67.42 67.42 67.43 67.56 67.66 67.92 68.03 67.82 67.51 67.41
62.73 62.54 62.20 62.13 63.09 63.23 63.08 62.65 62.26 62.15 61.14 60.64 58.75 59.17 58.42 58.38 59.35 58.92 59.20 59.32 60.49 62.32 65.13 67.65 68.32 67.90 67.18 67.30 67.18 66.67 67.02 67.36 67.38 67.58 67.31 67.26 67.07 66.85 67.10 67.37 67.20 67.51 67.63
63.49 61.76 62.59 60.94 61.61 62.46 61.38 59.76 56.49 54.62 54.70 55.08 54.75 55.79 56.44 56.88 56.94 56.71 56.89 57.53 57.93 59.86 62.18 65.43 66.85 66.79 67.11 66.26 66.72 66.61 66.23 66.90 66.73 66.58 66.62 66.93 66.72 66.75 66.79 66.80 66.97 67.10 67.10
58.83 59.58 56.30 53.30 53.41 53.80 52.46 51.61 50.79 50.36 49.39 49.50 50.65 49.94 50.22 50.82 52.05 54.85 53.60 54.23 54.20 53.72 53.85 57.56 60.90 62.85 64.49 66.25 66.15 65.86 65.76 65.98 65.87 66.22 66.41 66.31 66.13 66.43 66.92 66.95 66.63 66.70 67.10
52.81 52.23 51.78 50.80 50.85 50.33 49.77 48.98 48.16 48.95 48.36 48.02 49.90 49.11 48.66 50.16 49.77 49.92 49.64 49.84 49.27 50.65 51.42 51.72 51.71 53.57 58.73 60.86 61.03 62.04 63.16 63.87 64.67 64.67 65.22 64.83 65.03 65.07 65.20 65.68 66.83 67.25 66.89
50.68 49.13 49.24 49.00 48.70 48.04 47.57 47.36 46.56 45.50 45.04 45.57 43.96 44.22 45.09 46.63 45.54 45.94 46.00 46.08 47.71 48.86 49.22 49.13 50.13 49.74 49.74 55.26 57.12 57.62 58.90 59.22 60.18 61.27 63.43 63.56 63.18 63.33 63.75 64.16 64.97 65.48 66.27
47.28 47.39 45.63 45.57 45.14 44.84 44.65 43.63 42.84 42.37 42.90 42.98 40.70 40.19 38.10 40.91 43.35 44.67 45.60 46.19 45.92 45.89 46.09 47.96 45.57 46.04 47.09 47.88 49.58 55.41 55.93 56.71 58.63 59.73 60.12 60.64 61.39 61.86 62.45 62.88 63.18 63.66 64.40
44.92 44.22 43.66 42.97 42.76 42.64 41.62 40.97 40.66 40.14 38.84 40.89 41.25 39.19 36.32 35.32 38.71 41.84 43.13 44.23 42.94 43.65 43.20 43.47 43.55 45.02 45.10 45.43 48.67 50.28 53.71 54.54 56.83 58.21 58.73 59.08 59.58 60.08 60.52 60.55 60.83 61.42 62.01
43.05 42.77 42.57 41.63 40.84 41.00 39.37 39.20 41.15 38.93 38.57 38.10 40.34 42.36 39.31 38.30 35.60 35.68 40.21 41.18 41.53 41.13 41.32 41.52 42.30 43.70 44.45 45.23 47.93 50.01 52.26 55.02 54.49 56.06 57.29 57.62 58.05 58.46 58.76 58.59 58.84 59.35 59.39
42.13 41.39 40.97 40.06 39.26 39.51 38.37 38.09 37.68 37.66 38.52 38.21 38.83 37.75 37.38 37.78 38.48 36.91 33.52 34.83 37.99 39.32 40.50 41.76 42.54 42.84 43.83 43.54 44.12 45.62 50.15 48.80 50.44 52.00 53.67 54.73 55.72 56.61 57.25 57.08 56.64 56.70 56.62
40.63 39.69 40.21 38.47 38.17 38.07 37.76 37.38 37.33 36.89 37.56 37.87 38.63 37.24 36.97 34.34 34.35 34.49 33.83 33.70 33.70 36.63 39.53 40.95 41.35 40.21 41.05 40.13 44.15 46.84 45.78 46.81 48.33 50.05 51.54 52.45 52.43 52.67 54.15 54.19 54.08 53.65 53.82
37.57 36.90 37.37 36.63 36.65 37.09 37.34 36.96 36.64 36.15 37.01 35.87 36.55 35.81 36.82 35.94 36.87 36.33 34.43 33.13 32.43 35.35 36.39 38.28 37.95 38.15 40.01 38.92 39.48 43.59 43.64 44.70 45.81 47.44 49.31 50.80 50.71 50.68 51.02 51.45 51.49 51.14 51.61
36.14 36.57 36.32 36.05 36.00 36.45 36.05 35.61 35.51 35.73 35.55 34.25 33.29 33.99 35.01 35.81 36.50 35.97 34.71 32.76 30.13 32.42 33.58 32.66 35.99 36.48 37.31 37.39 40.07 43.33 39.22 42.97 43.70 44.85 46.13 47.19 46.75 46.83 47.58 47.93 48.43 49.84 49.43
37.72 35.70 35.25 34.81 34.99 35.20 35.18 34.71 34.11 33.61 33.51 33.14 32.81 32.95 33.71 35.18 35.71 35.63 35.20 34.68 32.28 27.49 28.05 31.68 31.69 35.63 36.16 37.21 39.05 39.39 37.92 41.29 42.89 43.22 43.79 43.90 44.53 44.64 45.50 45.86 46.35 46.75 46.88
35.44 34.72 34.24 34.13 34.14 34.24 34.10 33.25 32.83 33.37 33.06 32.72 34.29 33.27 33.78 34.57 34.51 34.87 34.31 34.19 33.13 30.39 26.79 31.75 32.56 33.89 35.12 36.99 37.92 37.04 37.17 40.69 41.05 42.44 42.58 42.27 42.90 43.24 43.31 43.91 44.46 44.83 44.40
33.93 33.77 33.88 33.47 33.33 33.29 33.06 32.04 31.67 32.73 32.21 31.44 32.38 33.04 33.27 34.03 33.70 33.53 33.76 33.40 32.16 31.62 28.41 30.59 32.41 33.59 33.69 33.25 34.36 35.30 36.56 36.21 37.13 40.65 40.44 40.66 41.22 41.96 42.55 42.96 43.21 43.74 44.46
33.64 33.38 33.34 33.06 32.91 32.91 32.29 31.28 31.21 31.51 30.53 30.71 31.56 31.99 32.07 34.33 32.32 32.92 32.39 31.45 31.19 31.46 29.39 27.28 30.92 31.80 31.50 33.00 33.31 32.99 35.29 36.90 35.60 37.50 39.31 39.53 40.99 40.97 40.78 41.47 41.82 42.23 42.63
32.52 32.68 32.90 32.27 32.29 32.79 32.32 31.46 31.88 30.36 30.83 31.08 31.39 31.29 31.49 31.71 31.14 31.67 31.06 30.51 30.90 31.88 31.35 30.45 29.03 31.43 31.75 32.28 32.05 33.29 33.76 32.99 34.22 36.22 37.36 38.34 39.00 39.15 39.60 40.27 40.62 41.16 42.00
32.16 31.96 32.15 32.36 32.51 32.54 32.53 32.60 31.35 30.71 30.55 31.20 31.54 31.58 31.47 31.44 31.09 30.91 31.10 30.97 32.11 31.16 30.37 29.35 29.67 29.63 29.88 31.33 31.73 30.31 28.12 29.88 28.92 32.44 34.66 35.77 37.37 37.70 38.46 39.01 39.37 39.46 40.32
32.37 32.20 32.05 31.85 31.73 32.39 33.79 32.26 32.24 30.63 29.85 30.01 30.56 31.07 31.96 33.69 36.34 34.89 32.80 31.54 31.18 29.74 29.73 30.58 29.10 28.37 28.76 27.85 27.03 27.78 25.77 26.81 28.10 29.70 29.86 31.24 30.92 31.63 32.82 35.92 36.58 38.04 39.10
30.79 31.10 30.66 30.63 29.92 33.06 36.21 36.68 35.20 30.95 29.97 29.49 28.98 30.47 31.20 33.01 33.19 35.70 35.56 35.63 34.47 31.14 29.72 28.85 28.35 26.77 25.80 26.38 27.25 26.04 25.37 24.66 23.56 31.00 27.45 26.98 29.79 29.33 31.35 32.82 36.84 38.96 39.85
29.50 29.15 29.03 29.18 28.34 28.60 35.52 36.28 35.97 31.29 29.69 29.37 29.42 29.61 30.00 31.84 32.08 30.47 33.40 35.24 35.06 35.44 34.47 29.68 25.57 25.14 24.92 27.29 28.01 26.40 26.72 26.70 26.04 27.44 27.40 25.89 29.22 28.34 31.51 33.77 36.40 36.98 38.65
28.07 27.71 27.87 28.11 27.83 30.08 35.02 35.31 35.33 30.65 29.66 29.50 29.74 29.66 29.35 29.31 30.58 31.94 31.27 30.90 31.04 31.04 29.43 29.60 28.01 28.44 29.55 29.67 29.25 28.51 27.31 26.29 26.68 27.43 28.67 23.77 27.71 27.63 29.22 31.18 35.75 35.71 36.30
27.05 26.75 28.17 27.83 26.89 28.00 34.05 34.80 33.82 29.97 29.50 29.04 30.03 30.25 30.39 30.17 33.14 34.40 31.00 30.40 28.21 27.67 30.90 32.35 33.33 33.66 32.65 32.37 31.41 27.81 25.04 24.13 22.17 24.02 26.90 24.26 25.94 25.38 26.77 27.77 30.43 34.84 36.27
28.09 29.13 28.58 27.66 29.83 27.59 32.80 34.73 33.69 30.46 28.69 28.58 29.37 29.97 32.68 31.73 33.63 34.38 30.50 27.90 25.41 24.75 26.69 28.29 26.35 26.45 28.03 27.47 31.04 27.94 26.43 23.10 22.36 21.23 25.22 23.20 23.61 24.56 22.89 27.84 29.42 31.20 30.93

GFSMA_sfc_wetblb_030.txt.gz
Wetbulb
57.81 58.64 58.54 58.63 58.63 59.10 60.00 60.63 61.13 61.20 60.15 59.21 57.54 55.97 56.30 56.92 56.65 56.82 56.07 59.75 61.86 62.38 62.65 64.11 64.82 65.44 66.60 68.36 67.93 67.97 67.64 67.32 66.94 67.31 67.24 67.20 67.48 67.65 67.93 67.71 68.05 67.62 67.62
60.48 60.41 59.97 59.94 61.13 61.37 60.78 56.81 54.93 54.28 53.41 52.28 50.15 50.49 51.07 51.18 51.53 52.07 52.84 53.62 59.06 57.77 57.79 59.66 60.59 61.41 62.21 63.96 65.05 65.53 65.87 65.69 65.62 66.42 66.55 65.80 66.25 66.01 66.48 67.16 67.63 67.75 67.81
60.91 57.73 53.89 54.00 54.79 53.83 53.17 52.10 51.10 48.72 47.26 47.89 46.08 47.74 47.56 47.19 47.58 48.24 50.09 49.14 48.26 52.88 55.48 56.91 57.78 58.91 60.50 60.70 61.49 61.57 61.62 61.79 61.60 61.93 62.66 63.14 64.11 65.00 65.19 65.49 65.84 66.53 66.97
55.15 53.08 52.02 51.40 51.86 50.48 47.95 46.71 45.57 44.86 44.41 44.10 43.24 44.05 44.10 44.78 44.25 46.16 45.91 43.06 43.68 46.44 49.52 53.19 53.93 54.38 54.80 55.94 57.14 58.15 58.66 58.55 58.22 58.32 58.74 59.20 59.91 60.86 62.04 63.55 64.44 64.90 65.49
51.02 49.52 48.09 46.40 46.58 45.04 43.91 44.33 43.15 42.34 41.73 41.10 41.88 41.72 42.74 41.20 43.54 45.32 41.23 40.48 43.11 44.12 44.36 48.11 50.15 49.07 50.06 52.07 53.96 54.94 55.29 55.65 56.28 56.83 57.40 57.85 58.66 59.65 60.40 61.41 62.63 63.24 63.91
46.69 45.66 43.88 43.17 44.25 42.40 40.93 40.72 40.60 40.10 40.37 38.98 42.37 42.67 40.56 40.59 42.32 39.35 37.82 42.12 42.97 42.37 41.41 41.26 40.98 41.00 47.50 49.63 50.62 52.50 54.17 54.38 54.39 54.75 54.76 55.42 56.28 57.01 58.45 59.95 60.70 61.75 62.54
43.34 42.37 42.02 41.24 41.62 39.76 38.24 39.04 38.72 38.32 38.21 38.61 37.97 37.63 38.52 40.05 38.51 38.07 38.66 39.79 39.98 40.73 39.71 39.22 39.68 40.32 41.36 46.95 48.39 50.71 51.54 52.10 52.78 52.78 53.52 55.71 56.61 57.68 58.40 59.11 59.48 59.73 60.07
41.76 41.39 39.97 39.28 38.91 38.28 36.87 36.41 36.26 36.02 36.59 37.50 35.68 35.22 33.55 35.97 37.67 38.18 37.95 38.45 37.85 38.73 39.15 40.23 39.32 39.61 39.17 40.33 42.58 47.28 47.72 49.54 50.76 51.66 52.98 53.71 54.62 55.23 55.90 56.61 57.63 58.32 59.07
40.30 39.49 38.76 38.14 37.56 36.83 35.56 35.14 35.16 35.09 33.95 35.87 36.23 35.03 30.50 29.48 32.76 35.43 36.67 36.22 36.98 36.20 37.45 38.57 38.69 39.37 39.43 39.00 41.27 41.47 44.74 46.34 48.51 51.02 51.60 51.90 52.73 53.66 54.49 55.09 55.56 56.12 56.73
38.55 38.63 38.09 37.13 36.25 36.00 34.43 34.86 36.63 33.98 33.75 33.21 35.05 38.54 35.83 34.12 29.73 28.93 33.90 35.63 34.28 35.82 35.67 35.31 36.69 37.56 38.76 38.95 40.60 41.94 43.45 44.83 46.87 49.07 50.50 50.75 51.46 51.94 52.74 52.98 53.39 54.15 54.68
37.37 37.52 36.76 35.64 34.92 35.02 33.74 33.52 33.50 32.54 32.99 33.81 32.85 33.41 33.07 32.49 32.50 30.66 27.34 29.14 33.42 34.94 35.58 35.42 34.88 36.35 37.56 37.06 36.79 38.62 42.79 43.88 46.11 47.70 48.58 49.73 50.30 50.91 51.62 52.05 52.21 52.29 52.75
35.79 35.68 35.84 34.08 33.55 33.50 33.16 32.78 32.57 32.10 32.13 32.05 31.98 31.90 31.54 29.79 29.83 28.41 27.36 28.27 28.87 31.69 33.29 35.24 34.77 35.50 36.17 35.72 38.38 40.83 41.44 43.03 44.57 45.70 47.33 48.98 49.02 48.88 49.68 50.44 50.57 50.70 50.79
33.75 33.24 33.29 32.41 32.19 32.49 32.82 32.40 31.95 31.56 31.50 30.22 29.32 29.58 30.98 31.26 31.93 30.43 29.19 28.12 27.72 30.57 31.19 32.55 33.08 33.51 35.43 34.73 35.28 39.26 40.45 41.44 42.06 43.95 46.11 47.01 46.12 46.08 46.48 48.08 48.35 48.71 49.27
32.93 32.53 32.06 31.86 31.82 32.25 31.83 31.25 31.04 30.87 31.09 29.41 28.36 28.33 29.55 30.04 30.65 30.74 29.58 28.11 25.47 26.95 29.35 28.93 32.33 31.89 32.27 33.39 35.38 39.22 35.60 39.33 40.58 41.86 43.26 43.94 43.41 43.46 44.06 44.99 45.75 46.83 47.07
35.01 31.89 31.52 31.16 31.15 31.23 31.06 30.56 30.15 29.38 29.08 28.76 28.13 28.07 28.07 29.44 30.11 30.59 30.61 30.00 27.46 23.20 23.77 28.28 28.99 31.82 32.06 33.16 34.76 34.41 34.00 38.05 39.92 40.46 40.87 41.01 41.15 41.71 42.31 43.24 43.99 44.40 44.36
31.77 31.32 31.00 30.75 30.73 30.77 30.60 29.75 29.19 29.64 28.66 28.36 29.88 27.82 27.72 29.15 29.78 30.10 30.00 29.95 29.33 27.02 23.76 28.98 29.73 31.04 32.17 33.38 34.32 34.36 34.26 37.62 38.41 39.55 39.94 39.73 40.22 40.95 41.61 42.30 42.79 42.91 42.83
30.83 30.84 30.62 30.40 30.31 30.24 30.23 29.09 28.79 29.27 28.20 27.47 27.82 27.97 28.32 28.92 29.11 29.20 29.52 29.46 28.79 28.62 25.51 27.95 30.21 31.31 30.77 31.08 32.34 33.01 33.79 32.91 33.73 38.06 38.78 38.78 39.02 39.50 39.98 40.22 40.99 40.87 40.75
30.60 30.16 30.47 30.42 30.29 30.46 30.12 29.18 28.15 27.71 26.98 27.07 27.43 27.45 27.69 30.66 27.90 28.42 28.53 28.09 28.39 28.97 27.44 25.75 29.01 29.78 29.81 30.93 31.00 30.64 32.78 34.23 32.83 35.66 36.58 37.43 37.79 38.06 38.03 38.44 38.58 38.67 39.05
29.90 30.20 30.24 30.08 30.13 30.57 29.82 28.90 27.97 27.51 27.54 27.54 27.37 27.26 27.57 27.67 27.09 27.78 27.98 27.95 28.82 30.28 29.74 27.47 26.34 29.04 29.33 30.64 30.36 31.06 29.65 29.00 30.60 33.66 35.25 35.67 36.25 36.66 37.00 37.26 37.58 38.01 38.40
29.55 29.68 29.71 29.83 29.93 29.20 28.94 28.88 28.87 28.19 27.66 28.06 28.23 28.21 27.88 27.69 27.43 27.73 28.91 28.70 30.09 27.92 27.75 27.08 27.24 28.77 28.95 29.89 30.51 25.84 24.96 27.04 26.49 29.42 31.96 33.56 35.13 35.26 36.00 36.48 36.37 36.23 36.11
29.77 29.42 28.92 28.55 28.02 28.63 31.23 31.09 30.65 28.79 27.30 26.64 27.12 27.77 28.78 30.84 34.07 33.17 31.10 29.86 29.01 28.13 28.74 28.70 26.70 26.78 27.50 25.03 23.89 25.25 24.24 25.11 26.07 28.48 28.27 27.92 28.55 29.08 29.76 32.77 32.88 33.87 34.28
28.15 27.97 27.02 26.44 25.96 29.97 34.20 35.76 34.32 29.83 28.02 26.59 26.64 27.92 28.47 31.21 30.80 34.21 33.91 34.23 33.07 29.32 27.31 26.47 28.09 24.40 24.09 24.42 25.29 24.47 24.53 24.94 21.07 27.41 25.37 25.28 27.59 26.16 27.23 28.12 32.44 33.75 34.65
26.38 25.63 25.36 25.25 24.78 24.94 34.00 35.03 35.29 30.47 27.30 26.43 26.24 27.05 27.67 29.86 30.58 28.96 31.74 33.26 32.73 34.14 34.12 28.33 24.42 23.97 23.75 24.84 26.35 26.38 24.33 23.32 22.87 25.38 25.25 23.17 26.19 24.61 27.18 28.55 32.44 33.24 34.00
24.84 24.33 24.39 24.71 23.90 25.95 33.11 34.19 34.51 28.54 27.36 26.96 26.81 26.52 26.36 28.00 28.57 29.85 28.84 28.81 30.65 27.99 27.54 27.20 26.10 26.94 28.61 28.64 26.80 26.13 25.33 25.24 25.62 25.41 25.81 20.57 24.09 23.02 25.29 26.19 31.46 32.63 33.47
23.72 23.55 24.36 23.69 22.43 23.37 31.93 33.26 32.21 28.03 27.57 26.78 27.70 26.96 28.89 27.93 31.21 33.30 31.40 27.21 26.06 25.02 28.81 31.17 32.46 31.59 30.93 30.99 29.78 26.66 23.62 21.96 19.56 21.01 24.24 22.24 22.17 22.01 23.64 24.13 26.04 31.36 32.74
24.08 24.44 23.45 23.03 26.28 23.15 29.79 32.72 31.95 28.55 26.60 26.68 27.86 28.76 31.24 29.92 32.88 34.05 28.23 25.56 22.03 22.76 26.19 26.88 24.20 25.06 26.55 26.26 29.77 26.37 24.87 20.45 19.94 19.00 23.47 21.70 21.92 22.58 20.95 24.72 25.43 26.91 27.36

GFSMA_sfc_wetblb_033.txt.gz
Wetbulb
57.20 56.79 57.17 58.20 58.66 58.65 60.43 59.67 57.97 55.87 53.67 53.52 51.61 50.02 50.71 50.14 49.77 50.92 51.13 57.06 56.85 57.30 59.38 60.54 61.11 61.64 62.53 63.44 64.25 64.62 64.54 64.88 64.91 65.10 65.31 65.60 65.83 66.10 66.27 66.50 67.31 67.29 67.46
60.80 60.44 57.07 56.27 53.43 55.34 53.84 52.95 52.07 51.06 49.24 46.81 45.95 46.19 45.95 45.86 46.18 46.45 48.55 45.89 53.43 53.72 56.02 58.24 58.65 59.73 59.54 59.69 60.31 60.52 60.92 61.36 61.54 61.44 61.69 62.29 62.53 63.17 64.31 65.44 65.94 66.22 66.83
56.45 52.70 53.14 52.17 51.64 51.61 51.19 49.62 48.14 45.08 43.63 43.75 41.44 42.83 43.12 43.26 42.65 45.47 43.84 40.95 44.19 50.20 52.31 54.32 55.05 55.20 55.23 56.10 57.18 57.88 57.96 57.75 57.57 58.09 58.73 59.21 59.55 59.82 60.53 61.46 62.73 64.29 65.10
53.46 52.03 51.10 49.81 48.49 46.50 44.83 43.40 41.78 41.34 40.61 39.86 39.30 40.09 40.98 40.59 41.40 41.93 39.67 39.61 42.57 43.42 45.62 50.63 50.39 50.53 51.54 53.10 54.46 54.90 55.32 55.61 56.28 56.63 56.73 56.88 56.97 57.78 59.38 60.63 61.15 61.82 63.00
49.66 47.65 46.16 44.62 42.88 41.33 40.52 41.19 40.38 39.65 38.34 38.51 39.96 40.44 39.66 38.66 42.19 40.44 37.27 40.30 41.41 40.89 40.13 45.00 46.11 46.05 48.04 50.03 51.63 53.08 54.07 54.37 54.30 54.58 54.92 55.27 55.60 56.91 57.82 58.34 58.51 59.81 61.31
44.79 43.29 41.69 41.18 40.77 39.24 38.33 37.94 38.07 37.56 37.84 36.62 40.25 39.98 37.65 38.47 39.93 36.03 36.65 39.71 39.75 38.83 38.31 38.49 37.18 38.57 45.31 47.32 48.68 50.63 51.93 51.76 51.67 52.41 52.88 53.16 54.09 55.34 56.64 57.85 58.87 59.34 59.93
41.91 40.37 39.85 39.36 38.75 37.34 36.19 36.88 36.63 35.74 36.02 36.61 35.12 35.89 37.01 38.15 37.42 35.71 36.99 35.77 36.53 37.26 37.53 37.19 37.89 37.84 38.82 44.83 45.48 48.24 49.30 49.53 50.31 50.87 51.29 52.23 53.81 54.34 55.06 55.86 56.49 56.98 57.99
40.08 39.80 38.33 37.59 36.98 36.36 35.36 34.57 34.32 34.22 34.38 35.60 34.13 33.76 31.24 33.23 35.91 37.29 35.76 37.25 34.64 35.46 36.70 37.36 36.66 36.60 36.33 36.73 39.93 45.65 45.91 47.37 48.85 49.58 50.33 51.06 51.86 52.76 53.43 54.12 55.02 55.69 56.31
38.66 38.16 37.38 36.70 35.81 35.18 34.04 33.54 33.37 32.96 31.90 33.90 34.88 32.03 27.90 27.16 31.13 33.44 33.81 34.56 35.00 33.67 34.50 35.69 36.40 36.69 36.53 35.76 39.27 40.18 43.39 44.96 46.96 48.94 49.86 50.31 50.83 51.51 52.38 53.17 53.68 54.09 54.53
36.99 37.37 36.69 35.65 34.79 34.27 32.87 33.49 34.36 31.78 32.31 31.33 32.97 35.80 33.88 32.87 27.75 26.47 32.01 33.73 32.09 33.57 32.55 33.08 34.70 35.03 35.67 35.96 39.37 41.27 42.34 43.55 46.01 47.84 49.40 49.96 50.35 50.79 51.80 52.04 52.60 53.05 53.20
35.96 35.96 35.41 34.24 33.55 33.24 32.04 31.95 31.36 30.91 31.47 31.44 30.85 31.23 31.10 30.90 30.15 28.23 25.76 27.52 30.93 32.29 33.10 33.14 32.64 34.03 34.27 35.45 35.24 37.17 41.72 43.14 45.07 46.73 48.33 48.88 49.46 50.10 51.29 52.01 51.49 51.62 51.73
34.47 34.29 34.22 32.89 32.19 32.06 31.45 31.08 30.87 30.55 30.24 30.15 29.91 29.25 29.24 28.09 27.98 26.46 25.01 25.90 26.17 29.14 30.74 32.99 32.84 32.83 33.54 33.67 36.99 39.97 40.61 41.83 43.46 45.10 46.62 47.22 48.00 48.35 48.71 49.22 49.58 49.81 50.29
32.70 32.09 32.07 31.30 31.05 31.14 31.31 31.03 30.58 30.11 29.98 28.49 27.57 27.85 29.17 29.14 29.87 28.59 26.83 25.62 24.90 27.87 28.63 29.81 31.21 31.92 34.34 34.10 33.72 38.47 39.19 40.95 41.74 43.15 45.02 46.49 45.88 45.57 45.89 46.79 47.54 48.08 48.76
32.02 31.57 31.15 30.84 30.66 30.98 30.53 30.05 29.79 29.61 29.65 27.94 26.99 26.71 28.03 28.27 28.86 28.53 27.27 25.52 23.26 24.76 27.04 25.77 30.73 30.03 31.60 31.69 34.31 38.65 35.07 39.06 39.90 41.13 42.86 43.82 43.54 43.13 43.23 44.11 44.82 45.55 46.07
33.67 30.99 30.56 30.20 30.08 30.21 29.99 29.47 29.00 28.21 27.75 27.49 26.92 27.04 26.82 28.16 28.68 28.49 28.38 27.91 25.49 21.41 22.35 26.14 26.70 30.50 31.54 32.18 33.76 33.75 33.30 37.12 39.19 40.27 41.10 41.21 40.83 41.24 41.79 42.43 42.71 43.26 44.04
30.93 30.51 30.10 29.72 29.63 29.66 29.50 28.63 28.09 28.61 27.47 27.29 28.57 26.91 26.59 27.69 27.92 28.22 28.06 28.26 27.65 25.34 22.28 27.22 28.10 29.90 31.21 32.57 33.71 33.57 33.31 37.06 38.33 39.42 39.54 39.48 39.63 39.86 40.15 40.48 40.73 41.39 42.03
30.10 30.02 29.64 29.31 29.17 29.10 28.89 27.91 27.54 28.19 26.96 26.63 26.74 26.85 27.12 27.79 27.36 27.42 27.70 27.81 27.16 26.95 23.92 26.45 28.93 30.30 30.19 29.81 30.77 31.70 32.83 32.29 33.02 37.61 38.60 38.53 38.20 38.30 38.66 38.90 39.46 40.09 40.90
29.66 29.33 29.20 29.07 28.87 28.99 28.42 27.34 26.64 26.86 26.47 25.99 26.55 26.24 26.58 29.93 26.82 26.94 26.73 26.55 26.96 27.54 25.90 24.70 28.04 28.26 28.00 29.44 29.88 29.64 31.62 33.89 34.69 35.08 36.68 36.59 36.85 37.32 37.69 37.86 37.91 38.46 38.82
28.79 28.80 28.88 28.50 28.31 28.66 28.01 27.36 26.99 26.85 26.65 26.56 26.52 26.15 26.66 26.61 25.90 26.73 26.83 26.83 27.40 29.38 29.08 27.18 25.52 28.19 28.71 29.82 29.60 30.81 30.05 29.17 29.92 33.15 35.01 35.34 35.96 36.27 36.57 36.88 37.45 37.25 37.49
28.14 28.03 28.03 27.93 27.91 27.44 27.52 27.67 27.99 27.45 26.91 27.41 27.38 27.04 26.78 26.67 26.28 26.64 28.16 28.38 29.70 27.54 27.18 26.58 26.72 27.58 28.07 29.36 29.45 25.34 24.37 26.62 26.13 29.01 31.45 32.96 34.54 35.09 35.50 35.57 35.42 35.22 35.61
27.78 27.61 27.30 26.96 26.34 27.33 30.05 29.68 29.43 27.96 26.52 25.76 26.10 26.33 27.67 29.92 33.05 32.23 30.49 28.31 28.12 27.50 27.34 26.83 25.64 26.99 24.37 23.79 22.51 24.35 23.75 24.89 26.26 27.43 27.72 26.96 27.38 27.44 28.18 31.56 31.98 33.20 33.65
26.78 26.30 25.49 25.19 24.67 28.65 33.12 35.18 33.97 28.66 26.57 25.59 25.25 26.47 26.66 30.11 29.70 33.62 33.26 33.59 32.51 28.58 27.61 28.15 24.19 23.04 22.12 22.67 24.00 23.87 24.79 24.06 20.42 27.21 24.97 24.52 26.63 25.61 26.61 27.27 31.70 33.07 34.06
24.55 24.41 24.38 24.21 23.48 23.53 32.74 34.63 34.90 29.08 26.07 25.59 25.30 26.36 26.83 29.03 29.96 28.03 30.89 32.97 32.88 33.62 32.03 27.19 23.27 22.29 22.37 24.24 26.96 25.40 23.99 23.62 22.57 25.11 25.53 23.09 25.28 23.42 25.63 27.06 31.56 32.51 33.50
23.75 24.04 23.74 23.37 22.57 24.75 32.62 33.70 34.13 27.42 25.92 25.53 25.77 25.82 25.55 26.42 28.12 29.44 29.03 30.66 27.00 26.66 26.43 26.63 25.47 26.13 28.29 28.18 26.68 26.04 25.32 25.34 25.54 25.52 25.62 20.16 23.53 22.22 24.51 25.54 30.80 32.12 33.06
23.71 22.66 23.06 22.46 21.35 22.09 31.24 32.82 32.01 27.20 26.53 25.45 26.02 26.83 28.26 28.30 31.09 33.33 30.15 25.90 25.14 24.74 28.39 30.87 32.41 31.53 30.74 30.88 29.97 26.95 23.34 21.64 19.54 21.30 24.27 21.98 22.15 21.94 23.74 24.22 26.33 31.15 32.60
23.59 23.86 22.92 22.05 24.79 22.04 29.14 32.34 31.68 28.06 26.35 26.63 27.86 28.04 30.78 29.84 32.66 33.57 28.05 25.25 21.93 22.57 25.91 27.21 24.07 24.70 26.53 26.09 29.86 26.42 24.88 20.51 19.89 18.74 23.04 21.27 21.47 22.65 20.62 25.44 26.08 26.84 26.66

GFSMA_sfc_wetblb_036.txt.gz
Wetbulb
58.72 56.33 56.92 58.05 58.25 58.04 58.18 54.58 53.46 52.38 50.55 49.41 46.41 46.37 46.37 45.29 45.18 45.98 47.02 53.21 54.94 56.42 58.29 59.67 60.26 60.94 60.16 60.39 60.62 60.66 60.98 61.52 61.70 61.48 61.73 62.18 62.63 62.97 63.64 64.68 65.71 66.40 66.76
60.21 60.53 56.75 53.22 52.75 52.90 52.26 51.35 49.75 47.45 43.60 42.58 41.53 41.60 41.75 42.89 41.95 45.27 40.99 42.28 52.57 53.62 55.27 57.23 57.13 56.83 56.43 57.00 57.79 57.92 57.86 58.08 58.19 58.52 59.16 59.63 60.00 60.32 60.76 61.34 62.10 63.18 64.82
56.64 53.78 52.71 50.86 49.24 49.31 48.79 45.68 42.94 41.90 39.78 40.36 38.55 39.75 40.67 39.56 41.52 40.00 39.11 40.63 42.87 48.26 52.23 52.99 53.17 52.88 53.47 54.38 55.43 55.66 55.89 56.25 56.78 57.10 57.29 57.44 57.77 57.84 58.26 59.53 61.05 61.78 62.38
53.52 51.95 49.80 47.44 44.49 42.43 41.81 40.59 39.14 39.40 37.66 37.24 36.63 38.39 38.54 38.20 41.44 36.40 38.44 39.36 41.15 40.16 43.79 48.96 48.91 49.31 50.43 51.78 53.10 53.80 54.42 54.81 54.74 55.03 55.12 55.56 55.94 56.42 57.21 58.36 58.95 59.51 60.13
49.80 48.39 45.35 42.28 40.29 38.97 38.28 39.02 37.75 37.95 36.07 36.44 37.24 38.51 36.45 36.94 39.70 37.85 37.15 38.38 38.69 37.98 38.17 43.21 45.05 45.28 46.82 48.73 50.58 51.65 52.82 53.13 52.84 52.63 53.22 53.76 54.28 54.69 55.73 56.64 57.78 58.83 59.83
45.23 43.68 40.65 38.92 38.69 37.46 36.51 36.52 36.28 35.74 36.03 34.80 37.77 37.15 36.10 37.29 38.06 34.48 36.34 38.17 36.56 36.51 36.91 36.28 35.98 37.36 44.23 45.81 47.70 48.77 50.40 51.20 51.19 51.28 51.89 52.28 52.86 53.82 55.29 55.80 56.16 57.12 57.69
41.65 39.82 38.59 37.60 36.95 36.01 34.85 35.48 34.97 33.66 34.35 35.12 33.94 34.80 35.39 36.11 36.70 35.25 35.19 34.93 34.74 35.29 35.63 34.51 35.37 35.82 36.39 43.29 44.66 46.01 48.00 48.94 49.43 50.10 50.58 51.29 52.04 52.57 53.67 54.27 54.99 55.38 56.06
39.42 38.68 37.03 36.07 35.66 35.14 34.22 33.30 32.58 32.48 32.64 33.93 31.86 31.61 29.00 31.45 34.07 35.59 33.45 35.55 32.61 34.01 34.42 35.51 34.44 35.75 34.65 35.19 38.17 43.73 44.89 46.53 48.13 49.27 50.02 50.50 51.30 52.03 52.93 53.52 53.92 54.54 54.93
37.74 36.95 36.09 35.40 34.51 34.23 33.22 32.26 31.65 31.93 30.84 32.14 33.28 30.45 26.28 24.98 29.69 31.95 32.80 33.78 32.61 31.76 32.39 32.90 34.53 34.92 34.61 34.33 37.57 38.11 42.84 44.24 46.37 48.40 49.61 50.19 50.68 51.82 52.49 52.86 53.12 53.78 54.11
36.12 36.11 35.46 34.52 33.67 33.27 32.00 32.72 32.55 30.66 31.18 29.72 31.00 33.99 32.05 31.60 25.98 25.10 30.16 31.99 30.16 31.99 30.02 30.74 32.75 33.17 34.03 34.75 37.23 40.14 41.72 42.88 45.51 47.63 48.90 49.43 50.45 51.13 51.65 51.95 52.55 52.85 53.16
34.65 34.81 34.21 33.33 32.66 32.33 31.00 30.77 29.98 29.63 30.11 29.64 29.27 29.34 29.01 29.20 28.37 26.52 24.25 25.95 29.90 30.94 31.14 30.20 30.49 32.08 32.97 33.44 33.50 36.34 40.86 42.96 44.81 46.27 47.76 48.84 49.44 49.97 50.69 50.92 51.83 51.64 51.38
33.18 33.04 33.10 31.97 31.58 31.37 30.51 30.06 29.65 29.34 28.99 28.66 28.40 27.82 27.71 26.54 26.18 24.68 23.26 25.06 25.17 27.28 29.53 30.97 30.44 30.46 31.37 32.00 35.87 39.06 40.16 41.56 43.14 44.98 46.74 47.37 47.61 48.16 48.99 49.66 49.94 49.68 49.64
31.36 30.88 31.10 30.78 30.50 30.54 30.45 30.19 29.60 29.09 28.84 27.59 26.68 26.77 27.95 27.87 28.38 27.27 25.13 24.54 23.72 26.40 26.70 28.03 29.67 29.95 32.83 32.18 32.90 37.56 38.67 40.38 41.26 42.81 44.83 46.23 45.56 45.46 46.14 47.24 48.00 48.14 48.22
30.84 30.47 30.28 30.26 30.21 30.39 29.72 29.27 29.01 28.72 28.49 26.95 25.98 25.81 27.16 27.34 27.82 27.47 25.79 24.42 22.24 22.67 25.96 23.95 28.71 29.05 28.94 31.02 33.45 37.64 33.88 38.22 39.33 40.78 42.42 43.28 43.07 42.99 43.53 44.30 44.96 45.10 45.62
32.25 30.06 30.05 29.80 29.68 29.60 29.12 28.68 28.20 27.37 26.69 26.42 26.03 25.92 25.97 27.24 27.74 27.66 27.27 26.34 24.29 20.24 21.48 24.96 24.13 29.23 30.30 31.27 32.75 32.87 32.46 36.40 38.73 39.49 40.33 40.52 40.59 41.03 41.61 42.17 42.30 42.48 42.80
30.17 29.92 29.51 29.36 29.15 28.89 28.49 27.62 27.04 27.39 26.48 26.49 27.81 26.05 25.71 26.57 26.99 27.36 26.88 27.06 26.51 24.34 21.38 26.49 27.15 28.75 30.06 31.50 32.98 32.58 31.81 35.84 37.17 38.42 39.10 39.12 39.48 39.93 40.24 40.68 40.35 40.59 40.92
29.61 29.39 29.21 28.81 28.40 27.99 27.60 26.61 26.19 27.19 26.35 26.14 26.13 25.89 26.26 26.67 26.37 26.52 26.66 26.89 26.09 25.90 23.16 25.76 28.21 29.28 29.03 29.03 29.76 30.53 31.59 31.22 31.84 36.79 38.32 38.34 38.44 38.67 38.57 38.78 39.16 39.51 40.03
29.00 28.84 28.70 28.25 27.77 27.75 26.88 25.82 25.61 26.10 25.69 25.47 25.84 25.59 25.64 29.09 25.81 26.13 26.27 25.78 25.74 26.61 25.24 23.59 26.66 27.65 27.50 28.90 29.36 29.45 31.38 33.17 32.67 34.82 36.02 36.48 36.90 37.19 37.49 37.58 37.72 38.19 38.56
28.24 28.27 28.08 27.37 26.95 27.21 26.50 26.10 25.98 25.95 26.02 25.89 25.71 25.25 25.33 25.24 24.70 25.52 25.66 25.61 26.46 28.21 28.41 26.68 25.07 27.65 28.24 29.45 29.28 29.03 27.92 27.69 29.01 32.50 34.41 35.03 35.57 36.06 36.38 36.87 37.27 37.61 37.36
27.95 27.32 26.89 26.71 26.55 26.12 26.48 26.67 27.35 26.99 26.34 26.31 26.16 26.03 25.73 25.50 25.12 25.55 26.22 26.81 28.62 26.21 26.24 26.10 26.68 27.06 28.41 27.43 26.11 23.72 23.11 25.58 25.48 28.60 31.27 32.83 34.24 34.53 35.08 35.24 34.94 34.71 34.89
27.12 26.80 26.16 25.65 25.19 26.36 29.21 28.81 28.96 27.70 26.10 25.13 25.57 26.02 26.51 28.52 32.81 32.26 30.17 28.21 27.71 27.03 26.63 27.30 26.47 24.49 23.40 22.74 21.83 23.61 22.96 24.36 26.21 27.70 26.41 26.83 26.89 26.97 27.68 31.23 31.64 32.84 33.25
25.82 25.23 24.61 24.22 23.65 27.83 32.36 34.79 33.76 27.98 26.82 25.76 24.89 26.03 25.75 29.36 28.77 33.48 33.29 33.58 32.52 29.16 28.78 25.05 23.49 22.23 22.06 22.28 23.62 23.69 25.02 22.91 20.77 27.19 25.29 25.17 27.16 25.93 26.83 27.08 31.39 32.72 33.66
23.75 23.48 23.32 23.10 22.62 22.67 32.36 34.41 34.63 28.72 26.44 24.90 24.91 25.32 26.24 28.65 29.57 26.78 30.62 33.02 33.16 33.31 31.58 26.72 22.88 22.19 22.20 23.91 26.33 24.88 23.67 23.28 22.76 25.33 25.68 23.03 25.50 23.77 26.13 27.11 31.44 32.29 33.25
22.73 22.16 22.37 22.49 21.51 23.85 32.28 33.39 33.84 27.10 25.54 24.86 25.08 24.89 24.49 25.32 26.93 29.61 29.04 30.64 27.03 26.41 26.30 26.59 25.49 26.25 28.44 28.25 26.46 26.00 25.65 25.47 25.46 25.02 25.53 20.09 23.59 22.33 24.85 26.03 30.81 32.04 32.90
21.87 21.51 22.51 21.44 20.50 21.51 31.17 32.45 31.77 26.17 25.59 25.17 26.03 25.19 25.74 27.71 31.12 33.26 30.52 26.77 25.36 24.96 28.49 30.92 32.35 31.83 30.92 31.02 29.95 26.83 23.16 21.53 19.58 21.21 24.01 21.77 21.94 21.79 23.41 24.13 26.14 31.08 32.44
23.40 23.59 22.46 21.46 24.67 21.14 29.07 31.92 31.43 27.42 25.38 26.27 26.62 26.42 30.37 29.97 32.58 33.74 28.12 25.47 22.17 22.61 25.29 27.24 23.57 24.09 25.84 25.32 29.42 25.44 23.84 20.01 19.44 18.54 23.08 21.64 21.54 22.64 20.16 24.62 24.87 26.12 26.12